Wind_Speed
4 7 18 28 27 26 20 21 19 13 9 14 20 28 17 12 10 17 15 10 11 13 15 21 27 28 28 32 35 39 42 45 42 41 39 37 38 37 35 33 30 29 27 26
3 15 24 19 21 23 26 26 24 18 9 11 12 20 8 9 10 13 14 13 10 7 9 8 19 28 31 34 38 37 40 41 46 43 41 26 34 38 37 35 33 32 29 27
14 13 11 20 23 25 22 25 27 16 6 17 8 23 15 7 6 8 9 10 10 12 12 12 9 21 27 30 35 40 44 43 46 43 38 30 27 23 34 36 35 33 31 30
9 22 19 19 21 17 25 20 24 23 15 18 10 17 12 18 21 13 19 17 16 10 8 11 8 10 24 31 36 38 38 42 44 45 41 40 34 23 33 37 40 36 33 30
11 9 11 13 26 25 16 9 16 16 13 12 10 8 12 14 14 16 19 19 16 12 13 14 13 15 27 29 31 33 33 38 39 45 45 44 33 30 31 32 38 36 34 31
21 19 13 23 23 18 20 12 20 19 14 19 20 16 21 8 17 14 14 18 19 17 12 13 14 15 20 27 29 32 34 38 42 44 44 43 37 33 32 34 34 37 34 31
7 15 10 14 8 5 7 15 10 15 15 19 20 16 21 7 18 21 21 18 16 10 11 12 11 9 12 22 28 29 32 32 37 43 42 42 40 42 42 41 38 39 38 34
4 8 3 6 14 4 7 5 3 7 5 12 5 10 10 25 20 8 13 14 13 11 10 10 8 8 11 21 28 30 31 30 37 41 42 42 44 41 41 41 41 41 42 39
3 5 5 7 8 19 6 7 3 6 3 2 3 4 7 6 14 22 21 16 13 5 4 8 8 7 9 17 25 31 30 31 35 38 36 38 41 39 40 40 37 37 38 38
4 12 5 5 6 12 10 7 2 4 2 4 3 2 5 3 10 13 10 4 6 3 6 8 8 7 11 17 23 27 31 33 36 36 36 37 39 41 40 37 35 33 33 33
7 5 8 4 2 3 6 6 6 5 4 3 2 4 3 5 4 6 7 7 7 8 7 6 5 7 5 5 15 21 24 25 28 31 32 34 36 37 34 33 31 30 28 29
4 4 5 18 4 5 3 4 4 4 3 2 3 5 4 5 6 4 6 7 7 5 5 5 5 5 7 6 8 13 18 22 25 30 30 31 34 33 30 28 26 25 25 25
5 4 9 10 2 4 3 3 3 4 3 5 5 4 6 10 9 7 7 9 9 5 5 6 5 5 4 5 9 12 15 18 22 26 30 28 29 29 28 26 25 24 24 23
5 3 5 6 13 11 7 8 3 4 3 3 5 1 14 16 13 13 13 7 7 6 5 4 4 4 3 7 7 13 15 18 21 24 27 30 29 28 27 25 24 23 21 20
3 5 2 10 12 2 5 5 8 6 3 2 2 5 6 10 11 12 11 11 8 7 7 4 3 2 3 7 12 12 15 19 23 25 25 25 24 23 23 22 21 20 19 18
2 4 4 6 3 11 12 15 12 8 8 4 4 4 9 8 6 8 11 12 11 9 6 5 1 2 3 3 12 14 15 14 19 20 21 22 22 21 20 19 18 18 18 17
3 2 5 5 1 3 5 7 8 6 9 2 9 5 9 8 7 7 11 11 11 11 9 5 3 3 1 4 9 10 13 14 13 17 16 14 15 17 17 17 17 16 16 15
2 2 2 4 6 5 1 2 1 8 8 7 3 9 10 9 6 0 8 8 11 12 11 4 3 3 6 7 9 10 11 12 13 12 13 11 12 13 12 13 14 13 13 14
9 3 3 2 2 0 2 5 4 3 3 10 7 12 11 15 4 4 11 9 7 9 10 5 3 6 7 8 9 11 10 10 11 12 12 10 11 12 11 10 10 10 11 13
5 4 2 3 3 1 2 7 7 0 3 6 9 10 10 12 6 4 14 12 11 11 11 6 5 9 12 11 12 11 9 9 9 7 9 9 8 9 10 9 9 8 9 7
2 2 2 3 3 4 6 12 5 5 5 8 5 6 8 5 2 10 9 8 7 8 11 10 9 9 10 11 11 11 11 10 8 7 7 7 7 7 6 6 7 7 8 7
3 4 3 2 3 3 14 3 5 3 5 4 3 3 4 6 7 5 6 7 7 8 10 11 10 11 9 6 5 7 8 8 8 8 8 7 5 5 4 5 5 5 6 6
3 3 3 3 2 3 3 3 3 4 4 4 7 7 7 5 5 6 5 5 6 6 9 9 8 8 8 7 4 6 4 6 6 6 5 4 3 3 2 3 4 5 5 4
4 4 1 3 2 2 3 0 2 4 6 9 8 6 8 8 7 6 6 6 5 6 6 6 6 6 6 6 5 5 4 4 4 5 5 4 4 4 4 4 5 4 5 5
1 5 4 2 2 1 3 8 9 8 6 8 7 5 8 8 8 6 6 6 5 5 7 6 5 4 3 3 3 3 2 2 3 3 3 4 4 4 5 5 5 5 4 4
1 1 0 1 1 1 3 6 9 8 8 8 8 8 7 8 7 6 5 6 6 7 8 7 5 2 1 0 0 1 2 2 2 2 3 4 5 5 5 5 4 4 4 3
Wind_Direction
270 226 233 236 226 238 249 240 248 236 215 210 226 248 235 227 229 233 236 227 224 220 227 219 224 225 213 210 205 207 205 207 202 203 202 207 210 212 212 213 214 214 213 212
257 238 244 260 276 254 236 244 242 252 210 229 245 259 223 224 239 228 232 239 227 227 242 231 218 220 211 207 205 203 207 202 203 202 202 200 204 210 211 212 213 213 211 213
232 251 262 242 255 261 258 228 234 237 209 234 243 261 252 248 254 264 253 252 238 219 227 236 212 211 212 207 201 203 206 205 202 200 197 198 202 205 208 211 211 209 211 213
234 248 244 239 235 235 257 242 236 238 237 239 174 260 236 235 240 236 248 248 248 233 229 238 209 206 210 213 212 209 202 200 202 200 193 192 193 193 206 206 207 206 210 212
239 234 223 229 234 229 246 267 276 235 233 246 215 257 254 235 237 234 239 245 243 230 217 234 230 215 216 219 215 211 203 198 197 197 199 196 197 201 205 203 206 206 208 210
248 254 251 240 252 239 227 239 261 250 243 247 235 226 258 211 225 236 233 237 235 235 225 228 238 221 214 217 215 205 199 199 196 197 199 198 196 193 192 198 201 205 206 206
256 253 253 217 227 162 190 208 230 216 217 237 223 216 231 213 215 225 232 233 237 218 217 225 226 201 203 195 201 197 195 196 194 197 197 198 196 200 197 199 194 197 201 203
293 323 153 189 226 161 181 201 209 232 213 219 163 212 226 224 236 240 232 239 258 233 223 230 228 216 201 195 192 191 194 194 194 195 199 199 202 199 201 203 201 202 203 205
299 267 272 251 204 199 197 229 140 346 339 99 192 278 304 191 223 233 239 245 251 325 289 275 283 261 229 197 195 194 193 195 195 197 195 195 199 198 200 204 205 205 207 209
284 295 244 301 176 191 185 152 160 185 273 221 242 267 225 251 217 232 243 267 316 351 323 307 307 301 273 226 206 198 198 196 194 191 193 193 194 201 204 203 202 204 207 209
279 227 289 330 301 192 166 178 182 187 202 98 348 275 269 241 259 279 338 341 336 323 333 332 324 326 321 195 191 193 194 191 186 186 184 187 192 199 200 198 199 201 205 203
264 289 288 289 266 201 250 155 143 152 175 121 133 273 331 328 326 305 338 326 318 340 342 350 345 349 15 61 131 160 175 179 181 182 182 185 190 188 188 189 191 194 193 193
310 320 319 332 4 106 322 199 165 110 87 192 143 259 359 6 15 356 328 344 338 345 2 0 358 15 17 43 100 125 151 162 171 176 175 175 174 172 173 176 176 179 182 184
336 287 211 279 291 305 303 7 7 152 147 181 232 347 352 355 351 345 348 340 335 338 333 346 359 17 35 56 78 124 137 157 161 162 161 157 161 163 164 167 171 176 182 185
70 279 260 288 298 294 24 19 30 67 18 168 291 91 358 345 325 346 337 344 353 341 340 2 346 350 344 100 90 100 117 135 144 144 146 148 151 156 159 165 169 175 180 184
354 291 315 294 49 72 54 31 46 48 19 38 29 75 9 324 308 352 352 354 354 343 326 327 55 0 17 45 104 119 113 112 136 134 137 146 150 154 159 165 172 180 183 188
265 286 345 274 63 253 32 13 20 80 39 343 36 322 321 331 353 358 354 351 341 332 329 274 231 143 133 97 115 123 125 124 124 130 134 143 151 157 163 172 183 187 190 193
228 73 249 282 339 47 178 329 286 91 52 29 1 341 333 317 271 211 18 345 332 327 326 289 193 139 139 119 123 127 125 130 136 134 135 147 158 159 166 177 186 188 191 197
204 170 287 350 31 195 7 11 352 2 26 21 1 350 347 344 134 200 15 350 328 326 319 315 172 151 143 128 138 138 126 126 130 135 140 148 167 162 163 176 183 192 197 202
167 208 351 338 71 32 305 326 318 349 4 11 13 353 347 340 22 328 352 346 346 345 349 6 91 131 137 143 153 135 128 130 118 132 136 154 158 161 170 171 174 187 199 204
7 12 202 288 94 323 343 318 320 63 274 352 357 334 343 355 293 303 327 342 348 352 358 34 61 78 114 134 141 125 127 110 121 135 142 150 158 148 162 170 175 188 188 184
8 325 13 5 59 317 342 12 64 277 303 313 315 306 304 287 301 309 332 343 356 8 10 34 56 57 70 78 97 98 96 122 138 147 143 139 137 136 156 162 156 174 193 189
26 1 348 9 81 93 14 79 316 321 291 322 336 341 331 335 330 332 334 354 3 19 20 30 52 61 56 54 77 113 117 141 136 128 123 121 129 136 146 164 179 180 185 186
355 10 35 207 75 140 62 256 2 318 334 345 354 341 351 348 354 348 353 5 13 16 20 36 46 44 38 45 68 115 138 149 143 146 153 151 156 178 174 175 176 172 184 193
252 334 324 46 57 75 119 33 358 342 358 357 353 350 1 354 357 353 2 4 3 10 19 29 48 43 44 46 81 112 135 161 156 145 145 150 161 175 186 191 196 200 203 209
292 219 7 278 122 302 325 26 2 355 359 0 0 359 8 11 356 345 357 2 7 7 12 21 23 44 60 22 113 167 185 200 207 187 189 194 188 195 198 196 191 202 220 226
Height
736 737 722 702 692 693 692 696 694 692 694 692 691 675 682 686 684 679 678 682 686 685 680 682 686 692 697 701 707 711 714 719 727 733 740 747 750 755 760 765 770 774 778 781
738 731 707 712 705 698 695 691 690 688 691 693 689 679 684 684 677 675 675 676 681 683 681 680 681 684 688 692 696 704 708 711 717 723 730 738 741 747 754 759 763 768 773 777
729 717 707 708 705 707 689 682 682 690 687 684 689 677 681 681 679 675 672 669 669 673 675 674 677 676 679 684 687 690 695 702 707 715 724 732 740 746 749 752 757 763 768 771
717 700 702 706 701 703 684 676 678 679 690 685 687 678 671 667 667 673 662 663 662 667 667 666 669 671 672 673 678 682 688 693 701 707 713 718 723 732 736 740 748 756 762 767
706 696 696 701 690 683 697 693 686 682 683 687 686 687 660 661 666 666 658 655 654 657 658 658 658 660 663 668 672 678 683 688 693 698 703 709 718 724 729 738 745 752 757 763
693 677 684 675 671 674 672 693 686 683 683 670 669 681 652 669 655 651 652 647 644 644 648 648 648 651 654 660 665 669 674 679 684 690 697 702 709 715 722 731 739 747 754 759
682 673 661 668 672 674 668 680 672 660 659 649 643 664 648 643 638 637 634 637 637 641 641 640 643 646 648 650 656 661 666 672 678 683 689 695 701 706 713 720 729 738 746 752
691 692 661 661 661 664 678 670 645 640 636 637 650 648 644 627 630 643 634 635 633 635 635 635 636 639 641 643 647 653 658 665 670 675 681 688 693 700 707 714 720 728 735 743
707 684 647 654 647 652 664 665 666 656 705 658 676 651 635 633 634 625 626 626 627 637 639 639 638 638 638 638 640 644 650 656 661 668 675 681 687 694 700 708 716 723 730 737
692 675 642 639 643 645 643 651 665 663 672 644 683 676 646 653 638 629 639 635 640 642 645 643 641 638 636 634 636 640 644 647 652 660 667 674 681 689 696 704 711 718 726 733
691 683 658 650 640 645 651 643 651 648 649 647 651 653 667 654 656 651 651 645 649 648 648 647 645 642 638 634 635 638 642 646 652 658 663 670 677 687 695 701 709 716 723 729
690 672 671 643 647 639 636 635 636 644 657 672 671 660 681 685 682 673 659 657 654 652 652 651 648 645 643 640 639 640 642 647 652 655 663 669 675 684 693 700 707 714 721 728
689 680 672 648 639 637 634 645 640 643 651 656 648 665 683 663 664 667 668 660 657 652 652 652 651 650 649 647 645 644 646 650 653 658 661 670 677 683 690 698 705 713 720 725
690 694 687 678 664 660 646 650 638 631 651 684 659 682 673 673 673 666 659 665 662 660 661 656 654 653 653 652 651 649 650 653 656 660 665 669 676 683 690 697 704 711 718 723
704 692 694 672 667 667 670 673 664 664 667 652 670 661 686 684 683 673 671 659 658 662 661 661 658 658 658 654 655 656 656 657 659 663 669 674 679 686 692 699 704 711 716 720
704 698 691 668 672 671 670 674 671 676 678 674 684 676 683 688 689 685 681 671 665 661 664 665 662 662 662 661 657 661 662 665 665 669 675 680 683 689 694 700 706 711 714 717
698 703 694 679 679 666 674 688 685 686 689 686 683 688 688 684 686 687 682 679 675 671 664 666 663 662 665 665 661 667 666 668 673 674 680 685 688 691 695 701 707 710 713 716
695 702 702 683 666 674 686 693 693 691 696 695 695 695 692 688 685 688 686 684 680 675 667 664 662 663 665 665 669 671 671 673 677 681 683 688 692 694 698 703 706 709 710 713
692 695 708 696 688 687 684 692 693 693 699 701 703 698 692 683 682 684 686 686 682 675 670 665 662 664 666 666 671 675 677 679 681 684 685 689 695 696 698 701 704 708 711 714
691 694 698 700 691 706 699 698 696 699 705 707 705 703 701 688 680 683 686 685 680 676 671 668 667 667 669 672 675 677 681 683 683 687 689 693 695 697 700 702 705 708 712 712
695 698 702 704 703 718 708 704 697 718 720 709 711 709 706 702 701 696 693 689 685 681 677 674 673 673 675 677 678 681 682 683 685 688 691 694 696 696 700 703 706 709 711 712
702 702 699 700 717 723 709 700 706 722 717 718 717 714 712 711 705 701 696 692 688 685 683 681 679 679 680 680 680 681 682 685 687 691 693 695 696 698 701 702 703 707 711 712
707 714 708 709 712 716 721 723 724 722 723 717 713 711 710 707 704 699 697 695 692 689 688 687 685 685 685 684 685 687 689 691 690 690 692 693 695 697 700 702 704 708 710 712
714 716 707 709 718 719 723 723 724 723 719 716 713 713 710 708 705 702 697 695 694 693 693 691 690 690 689 689 689 689 690 691 691 692 694 694 696 700 701 703 704 705 709 712
725 722 722 712 717 720 722 724 725 722 720 717 716 715 713 710 707 705 703 700 698 697 695 694 692 693 693 693 692 692 692 693 693 693 694 695 696 698 701 702 703 706 707 709
728 727 724 718 726 728 722 727 728 725 724 721 719 717 716 714 711 708 706 704 702 699 697 695 695 695 695 695 694 694 693 693 694 694 694 695 697 701 702 703 703 704 706 707